Погода в Алаверди

Армения     41°06′01″N   44°39′25″E
темп.,
°C
ветер,
м/с
пор.,
м/с
влажн.,
%
обл.,
%
осадки,
мм/ч
давл.,
гПа
погр.,
м
9 марта, вт
вт901:00−8юз22840 0.0 101823
04:00−8юз22800 0.0 101828
07:00−8юз23760 0.0 101935
10:00−3зюз23720 0.0 1018174
13:000з247362 0.0 1016692
16:00+1зюз256431 0.0 1016833
19:00−4юз22730 0.0 101822
22:00−6юз22720 0.0 102233
10 марта, ср
ср1001:00−7юз22720 0.0 102336
04:00−7юз22704 0.0 102440
07:00−8юз236810 0.0 102542
10:00−2зюз22655 0.0 1024176
13:00+1зсз136313 0.0 1021691
16:00+2з13617 0.0 1019845
19:00−3всв11862 0.0 102021
22:00−3ююз117943 0.0 102021
11 марта, чт
чт1101:00−3в0078100 0.0 101821
04:00−4всв1182100 0.0 101721
07:00−4св1191100 0.1 101561
10:00−2св1286100 0.1 1014264
13:00−1св118597 0.1 1011339
16:00−1св229499 0.4 1008219
19:00−2в2296100 0.7 1008155
22:00−3всв1196100 0.9 100896
12 марта, пт
пт1201:00−3всв1196100 0.8 100780
04:00−3с1297100 2.4 1006134
07:00−3с2397100 1.9 1006225
10:00−4с3495100 4.8 1009420
13:00−4всв4793100 4.5 1011670
16:00−5с3792100 7.6 1013815
19:00−7с3496100 2.3 1018360
22:00−8с0196100 4.3 1022210
13 марта, сб
сб1301:00−9ююв1293100 0.4 102442
04:00−11ю2289100 0.4 102721
07:00−13ююз228373 0.0 102924
10:00−7зюз127442 0.0 1029207
13:00−4сз11750 0.0 1028756
16:00−3с127315 0.1 1027811
19:00−8в018630 0.0 102821
22:00−11юз128115 0.0 103124